Dewpoint
47 51 52 51 50 50 49 49 48 48 46 45 44 44 44 43 43 43 43 42 42 42
44 45 46 47 50 51 50 49 49 48 47 46 45 44 44 43 43 43 43 43 42 42
43 45 45 46 47 48 49 49 49 48 47 46 45 45 44 43 43 43 43 43 42 42
41 42 44 45 46 47 48 49 49 48 47 46 46 45 44 44 43 43 42 43 42 42
40 41 41 42 44 45 46 47 48 48 48 47 46 46 44 44 43 43 42 42 42 42
38 38 39 40 41 43 44 45 46 47 47 47 46 46 45 44 44 43 43 42 42 42
36 37 37 37 37 38 42 43 44 45 46 47 47 46 46 45 44 43 43 44 43 43
36 36 36 35 35 36 37 41 43 44 44 46 46 46 46 45 44 44 44 44 44 43
33 33 34 34 33 35 36 37 39 41 43 44 45 46 46 46 45 45 44 43 43 43
28 29 31 30 31 33 33 34 35 37 39 42 43 45 46 46 46 45 44 44 42 41
27 28 29 29 30 31 32 32 33 35 36 37 41 44 46 46 46 45 44 42 41 41
27 28 28 29 29 30 31 32 32 33 33 35 37 41 45 45 45 42 41 41 41 40
27 27 27 28 28 29 29 30 31 31 31 33 36 38 42 44 42 40 39 39 39 40
25 25 26 26 28 29 28 30 31 31 31 32 36 38 42 44 41 39 38 37 37 37
Wind_Speed
11 8 8 11 12 13 14 14 15 17 19 20 18 17 16 16 17 16 17 17 15 14
16 16 14 15 12 12 12 14 17 18 19 19 19 19 18 18 19 17 17 18 17 17
14 14 14 13 15 15 15 15 17 16 17 17 18 17 17 16 16 18 17 15 17 17
17 16 16 15 16 16 16 15 15 15 16 17 17 17 17 18 17 19 19 16 18 19
15 16 17 17 17 17 17 17 16 16 16 17 17 17 18 21 20 21 21 19 15 15
16 16 17 17 18 18 17 17 16 16 16 17 16 16 18 20 21 21 21 18 17 17
18 18 18 17 18 18 18 17 17 15 16 17 18 17 17 17 18 19 17 16 17 16
15 15 15 17 19 20 19 18 17 19 18 15 16 16 17 17 19 19 17 15 15 16
14 15 16 16 17 17 18 20 21 20 20 21 17 17 22 23 19 20 20 20 17 12
11 13 14 15 16 16 17 17 20 21 22 23 21 21 23 25 23 20 20 18 17 15
16 17 17 17 17 18 18 17 20 21 21 23 23 24 23 25 21 17 18 18 18 17
18 20 20 21 22 21 21 21 22 23 23 24 26 27 25 26 18 16 15 14 16 14
18 19 21 21 23 22 22 24 24 26 24 26 28 28 30 28 16 15 14 13 13 14
17 19 19 21 21 22 23 24 25 27 26 25 24 28 26 22 14 15 15 15 12 10
Wind_Direction
18 350 312 294 285 274 268 259 255 247 239 237 234 232 228 229 231 227 229 231 227 228
14 7 351 338 321 295 278 267 263 256 248 238 233 228 224 227 230 222 228 229 227 226
7 2 355 349 343 325 300 281 270 257 249 242 231 227 221 228 230 224 230 225 226 226
8 1 356 354 343 334 322 310 284 263 255 247 239 230 223 227 228 226 231 226 223 228
5 2 359 352 343 338 333 328 314 289 268 255 246 238 227 230 228 226 229 228 220 228
6 2 356 348 342 340 336 334 329 319 294 273 257 242 232 233 233 228 225 218 211 217
359 355 349 343 340 338 332 326 325 319 309 293 278 260 246 238 236 230 220 206 206 213
339 337 336 339 337 334 334 329 320 317 309 299 285 275 258 238 229 224 218 208 208 202
334 331 330 329 328 324 326 329 326 320 311 304 290 268 259 242 235 223 216 205 201 192
332 326 323 319 315 312 317 319 319 316 316 306 297 286 263 243 241 231 215 205 186 166
342 334 330 330 328 323 318 314 316 308 306 308 301 288 272 253 236 222 208 187 173 166
339 333 333 332 329 324 322 320 318 311 308 307 301 297 269 261 235 200 179 159 153 159
332 333 329 325 323 318 320 316 315 310 305 301 295 292 282 256 209 169 165 154 158 167
332 328 323 319 317 313 315 311 309 305 304 300 291 294 280 229 182 167 158 154 173 177